Regional Weather Roundup
Issued by NWS Jackson, KY

Home | Current Version | Previous Version | Graphics & Text | Print | Product List | Glossary On
Versions: 1 2 3 4 5 6 7 8 9 10 11 12 13 14 15 16 17 18 19 20 21 22 23 24 25 26 27 28 29 30 31 32 33 34 35 36 37 38 39 40 41 42 43 44 45 46 47 48 49 50
515
ASUS43 KJKL 221310
RWRJKL

EAST KENTUCKY HOURLY WEATHER ROUNDUP
NATIONAL WEATHER SERVICE JACKSON KY
900 AM EDT SAT APR 22 2017

NOTE: "FAIR" INDICATES FEW OR NO CLOUDS BELOW 12,000 FEET WITH
NO SIGNIFICANT WEATHER AND/OR OBSTRUCTIONS TO VISIBILITY.

* THESE REPORTS ARE NOT UNDER NWS QUALITY CONTROL AND MAY NOT
  REPORT WEATHER SUCH AS PRECIPITATION AND FOG.

KYZ079-080-083-085-087-088-110-112-115-119-120-221400
...EASTERN KENTUCKY...

CITY           SKY/WX    TMP DP  RH WIND       PRES   REMARKS
JACKSON        LGT RAIN  51  48  89 CALM      29.98R
LONDON         RAIN      51  48  89 NE12      29.94F FOG
SOMERSET*      RAIN      50  50 100 N6        29.97S
MONTICELLO*    RAIN      53  52  96 N10G20    29.96S
WILLIAMSBURG*  CLOUDY    50  50 100 N3        29.95R
MIDDLESBORO*   RAIN      57  56  98 NE9       29.92R
HARLAN APT*    CLOUDY    54  50  87 W5        29.94R
PIKE CO APT*   CLOUDY    50  50 100 N5        29.97R
BIG SANDY APT* CLOUDY    50  50  98 NE7       29.98R
MOREHEAD APT*  LGT RAIN  48  45  87 E9G16     29.99F
ASHLAND*       CLOUDY    48  45  87 NE5       30.02R
$$

KYZ035-036-041-042-044-050-067-078-099-221400
...CENTRAL KENTUCKY...

CITY           SKY/WX    TMP DP  RH WIND       PRES   REMARKS
MT STERLING*   DRIZZLE   46  46 100 E9        30.00F
FLEMING/MASON* DRIZZLE   46  44  95 NE14      30.00F
DANVILLE*      RAIN      46  46 100 NE7       29.99S
LEXINGTON      RAIN      48  45  89 NE12      29.99F FOG
FRANKFORT      LGT RAIN  48  44  86 NE8       29.98F FOG
LOUISVILLE     LGT RAIN  49  46  90 NE12      29.98S
LEBANON*       LGT RAIN  48  48 100 NE9       29.97S
GLASGOW*       CLOUDY   N/A N/A N/A NE15      29.89S
BOWLING GREEN  CLOUDY    53  52  96 E14       29.88F
$$

KYZ091>093-OHZ055-061-077-WVZ005-015-034-035-042-221400
...SOUTHERN OHIO/WEST VIRGINIA...

CITY           SKY/WX    TMP DP  RH WIND       PRES   REMARKS
COVINGTON      CLOUDY    48  40  73 NE17      30.02F
COLUMBUS       CLOUDY    47  38  71 NE15      30.07R
DAYTON         CLOUDY    45  37  73 NE21      30.06F
WILMINGTON     PTSUNNY   45  40  82 NE16      30.04F
HUNTINGTON     CLOUDY    48  44  86 N9        30.02R
CHARLESTON     CLOUDY    49  44  83 N8        29.99R
PINEVILLE*     CLOUDY    55  53  94 MISG        N/A  FOG
BECKLEY        CLOUDY    50  48  93 N6        29.95R
BLUEFIELD      RAIN      57  55  93 W6        29.93R FOG
LOGAN CO APT*  CLOUDY    50  50 100 CALM      29.96R
$$

VAZ002-007-008-TNZ017-027-036-066-071-221400
...SOUTHWEST VIRGINIA/EAST TENNESSEE...

CITY           SKY/WX    TMP DP  RH WIND       PRES   REMARKS
WISE*          LGT RAIN  52  52 100 N9        29.95S
JONESVILLE*    PTSUNNY   59  59 100 CALM      29.92R
ABINGDON*      CLOUDY    62  62 100 CALM      29.91S
BRISTOL        CLOUDY    63  60  90 CALM      29.90R
MORRISTOWN*    CLOUDY    63  63 100 CALM      29.88S
SEVIERVILLE*   MOSUNNY   63  63 100 CALM      29.88S
KNOXVILLE      CLOUDY    65  62  90 S6        29.87S
LAFOLLETTE*    FOG       57  55  94 NE8       29.92R VSB 1
OAK RIDGE      CLOUDY    65  63  93 SW3       29.89R
CROSSVILLE     TSTM      59  58  96 NW5       29.92R FOG
NASHVILLE      CLOUDY    56  54  93 SE13      29.85F
$$

...KEY TO REMARKS...
VSB - VISIBILITY IN MILES
WCI - WIND CHILL INDEX
HX  - HEAT INDEX

$$




USA.gov is the U.S. government's official web portal to all federal, state and local government web resources and services.